Regional Weather Roundup
Issued by NWS

Home | Current Version | Previous Version | Text Only | Print | Product List | Glossary On
Versions: 1 2 3 4 5 6 7 8 9 10 11 12 13 14 15 16 17 18 19 20 21 22 23 24 25 26 27 28 29 30 31 32 33 34 35 36 37 38 39 40 41 42 43 44 45 46 47 48 49 50
000
ASUS42 KKEY 190610
RWRKEY

FLORIDA REGIONAL WEATHER ROUNDUP FOR THE FLORIDA KEYS
NATIONAL WEATHER SERVICE KEY WEST FLORIDA
100 AM EST MON FEB 19 2018

...SOUTH FLORIDA AND THE KEYS...

CITY           SKY/WX    TMP DP  RH WIND       PRES   REMARKS
FORT MYERS     FAIR      69  64  84 E3        30.22F
SW REGIONAL AP FAIR      67  64  90 E5        30.23S
NAPLES         FAIR      69  64  84 E3        30.21F
MIAMI          FAIR      76  64  66 E9        30.22F
WEST KENDALL   FAIR      72  63  73 E10       30.21F
HOMESTEAD      FAIR      74  63  69 E10       30.20F
MARATHON       FAIR      75  64  68 E10       30.19S
KEY WEST INTL  FAIR      74  67  78 E9        30.19F

...INTERNATIONAL WEATHER...

CITY           SKY/WX    TMP DP  RH WIND       PRES   REMARKS
NASSAU BAHAMAS MOCLDY    75  70  83 NE8       30.23S
CANCUN MEXICO  CLEAR     77  70  78 E8        30.09F
COZUMEL MEXICO PTCLDY    70  68  94 CALM      30.07F

ADJACENT COASTAL WATERS...

STATION/POSITION TIME  SKY/WX   TEMP    WIND        PRES    WAVE
                                AIR SEA DIR/SP/G            HT/PER
                 (UTC)          (F)     (DEG/KT/KT) (MB)    (FT/S)
PULASKI SHOAL LI 0600            73     110/ 13/ 15 1022.0F
SAND KEY         0550            76                 1022.7F
LONG KEY         NOT AVBL
MOLASSES REEF    0600            75 76   60/ 11/ 14 1022.9F
FOWEY ROCKS      0600            75 75   70/ 20/ 21 1023.5F
Buoy 42097       0600               74                N/A     2/ 5

$$



USA.gov is the U.S. government's official web portal to all federal, state and local government web resources and services.